Location: Palo Alto
(37.4420°N, 122.1420°W)
Time: 19:47:25
(UTC-08:00)

ISS - All Passes

Search period start: 24 January 2015 00:00
Search period end: 03 February 2015 00:00
Orbit: 402 x 410 km, 51.6° (Epoch: 24 January)

Date Brightness Start Highest point End Pass type
(mag) Time Alt. Az. Time Alt. Az. Time Alt. Az.
24 Jan - 00:10:23 10° WSW 00:13:36 53° NW 00:16:51 10° NE night (unlit)
24 Jan - 01:49:27 10° NW 01:50:45 12° NNW 01:52:00 10° N night (unlit)
24 Jan - 05:04:29 10° NNW 05:06:17 14° NNE 05:08:08 10° NE visible
24 Jan - 06:39:58 10° NW 06:43:18 78° NE 06:46:35 10° SE visible
24 Jan - 23:18:35 10° SW 23:21:51 75° SE 23:25:09 10° NE night (unlit)
25 Jan - 00:56:32 10° WNW 00:58:43 16° NNW 01:00:53 10° NNE night (unlit)
25 Jan - 04:13:44 10° N 04:14:13 10° NNE 04:14:46 10° NNE visible
25 Jan - 05:48:21 10° NW 05:51:29 39° NE 05:54:37 10° ESE visible
25 Jan - 07:25:25 10° W 07:27:50 18° SW 07:30:09 10° S daylight
25 Jan - 22:27:09 10° SSW 22:30:09 34° SE 22:33:12 10° ENE night (unlit)
26 Jan - 00:03:58 10° W 00:06:44 24° NNW 00:09:30 10° NNE night (unlit)
26 Jan - 04:56:50 10° NNW 04:59:34 24° NNE 05:02:20 10° E visible
26 Jan - 06:33:05 10° WNW 06:36:10 36° SW 06:39:14 10° SSE visible
26 Jan - 21:36:16 10° S 21:38:29 17° SE 21:40:48 10° E night (unlit)
26 Jan - 23:11:40 10° WSW 23:14:48 41° NW 23:17:57 10° NE night (unlit)
27 Jan - 00:51:24 10° NNW 00:52:03 10° NNW 00:52:39 10° N night (unlit)
27 Jan - 04:05:26 10° NNW 04:07:33 16° NNE 04:09:43 10° ENE visible
27 Jan - 05:41:08 10° NW 05:44:26 79° SW 05:47:44 10° SE visible
27 Jan - 22:19:40 10° SW 22:22:56 81° NW 22:26:14 10° NE night (unlit)
27 Jan - 23:58:03 10° WNW 23:59:55 14° NNW 00:01:45 10° NNE night (unlit)
28 Jan - 03:14:15 10° N 03:15:26 11° NNE 03:16:39 10° NE night (unlit)
28 Jan - 04:49:21 10° NW 04:52:36 51° NE 04:55:49 10° ESE visible
28 Jan - 06:26:58 10° W 06:28:50 14° SW 06:30:35 10° SSW visible
28 Jan - 21:27:59 10° SSW 21:31:08 47° SE 21:34:19 10° ENE night (unlit)
28 Jan - 23:05:16 10° WNW 23:07:49 20° NNW 23:10:21 10° NNE night (unlit)
29 Jan - 03:57:43 10° NNW 04:00:38 28° NNE 04:03:34 10° E visible
29 Jan - 05:34:14 10° WNW 05:37:07 27° SW 05:39:57 10° SSE visible
29 Jan - 20:36:45 10° S 20:39:22 23° SE 20:42:03 10° ENE night (unlit)
29 Jan - 22:12:47 10° W 22:15:47 32° NNW 22:18:48 10° NNE night (unlit)
30 Jan - 03:06:11 10° NNW 03:08:34 18° NNE 03:11:00 10° ENE night (unlit)
30 Jan - 04:42:05 10° WNW 04:45:20 57° SW 04:48:34 10° SE visible
30 Jan - 19:46:33 10° SSE 19:47:38 11° SE 19:48:52 10° ESE night (unlit)
30 Jan - 21:20:34 10° WSW 21:23:48 61° NW 21:27:04 10° NE night (unlit)
30 Jan - 22:59:25 10° NW 23:00:54 12° NNW 23:02:20 10° N night (unlit)
31 Jan - 02:14:48 10° N 02:16:24 13° NNE 02:18:03 10° NE night (unlit)
31 Jan - 03:50:09 10° NW 03:53:27 68° NE 03:56:44 10° ESE night (unlit)
31 Jan - 05:28:51 10° WSW 05:29:36 10° SW 05:30:11 10° SW visible
31 Jan - 20:28:40 10° SW 20:31:53 64° SE 20:35:09 10° NE night (unlit)
31 Jan - 22:06:23 10° WNW 22:08:41 17° NNW 22:10:58 10° NNE night (unlit)
01 Feb - 02:58:23 10° NW 03:01:27 35° NNE 03:04:32 10° ESE night (unlit)
01 Feb - 04:35:14 10° W 04:37:49 21° SW 04:40:21 10° S night (unlit)
01 Feb - 19:37:09 10° SSW 19:40:02 30° SE 19:42:58 10° ENE visible
01 Feb - 21:13:42 10° W 21:16:32 26° NNW 21:19:23 10° NNE night (unlit)
02 Feb - 02:06:43 10° NNW 02:09:20 22° NNE 02:11:59 10° E night (unlit)
02 Feb - 03:42:49 10° WNW 03:45:59 42° SW 03:49:06 10° SSE night (unlit)
02 Feb - 18:46:17 10° SSE 18:48:12 15° SE 18:50:13 10° E visible
02 Feb - 20:21:17 10° WSW 20:24:27 46° NW 20:27:38 10° NE visible
02 Feb - 22:00:39 10° NW 22:01:38 11° NNW 22:02:34 10° N night (unlit)
